Weather History for KMWH - June, 2013

Change the Weather History Date:

Sunday, June 16, 2013

  Actual Average Record
Temperature  
Mean Temperature 75 °F 66 °F  
Max Temperature 92 °F 80 °F 92 °F (2013)
Min Temperature 57 °F 52 °F 42 °F (2001)
Degree Days  
Heating Degree Days 0 2  
Month to date heating degree days 20 39  
Since 1 June heating degree days 20 39  
Since 1 July heating degree days 5301 5866  
Cooling Degree Days 10 2  
Month to date cooling degree days 52 32  
Year to date cooling degree days 102 57  
Since 1 June cooling degree days 52 32  
Growing Degree Days 24 (Base 50)    
Moisture  
Dew Point 39 °F    
Average Humidity 32    
Maximum Humidity 49    
Minimum Humidity 14    
Precipitation  
Precipitation 0.00 in 0.03 in 0.19 in (1980)
Month to date precipitation 0.12 0.50  
Year to date precipitation 2.20 4.52  
Sea Level Pressure  
Sea Level Pressure 29.93 in    
Wind  
Wind Speed 7 mph (NNE)    
Max Wind Speed 14 mph    
Max Gust Speed 17 mph    
Visibility 10 miles    
Events      
T = Trace of Precipitation, MM = Missing Value Source: NWS Daily Summary

Daily Weather History Graph

Daily Weather History Graph

Search for Another Location

Airport or City:

Trip Planner

Search our weather history database for the weather conditions in past years. The results will help you decide how hot, cold, wet, or windy it might be!

Date:

Astronomy

Jun. 16, 2013 Rise Set
Actual Time 5:00 AM PDT 8:55 PM PDT
Civil Twilight 4:20 AM PDT 9:35 PM PDT
Nautical Twilight 3:25 AM PDT 10:30 PM PDT
Astronomical Twilight 2:01 AM PDT 11:55 PM PDT
Moon 1:11 PM PDT (6/16) 12:35 AM PDT (6/16)
Length of Visible Light 17h 15m
Length of Day
15h 54m
Waxing Crescent, 51% of the Moon is Illuminated
Jun 16
Waxing Crescent
Jun 23
Full
Jun 29
Last Quarter
Jul 8
New
Jul 15
First Quarter

Hourly Weather History & Observations

Time (PDT) Temp. Dew Point Humidity Pressure Visibility Wind Dir Wind Speed Gust Speed Precip Events Conditions
12:52 AM 62.1 °F 37.9 °F 41% 29.95 in 10.0 mi NNE 4.6 mph - N/A   Clear
1:52 AM 63.0 °F 37.9 °F 40% 29.95 in 10.0 mi North 8.1 mph - N/A   Clear
2:52 AM 60.1 °F 37.9 °F 44% 29.94 in 10.0 mi NE 5.8 mph - N/A   Clear
3:52 AM 57.9 °F 37.0 °F 46% 29.95 in 10.0 mi North 5.8 mph - N/A   Clear
4:52 AM 60.1 °F 36.0 °F 41% 29.96 in 10.0 mi NNE 9.2 mph - N/A   Clear
5:52 AM 60.1 °F 37.9 °F 44% 29.97 in 10.0 mi North 8.1 mph - N/A   Clear
6:52 AM 64.0 °F 39.0 °F 40% 30.00 in 10.0 mi NE 5.8 mph - N/A   Clear
7:52 AM 64.0 °F 37.0 °F 37% 29.99 in 10.0 mi NNE 10.4 mph - N/A   Scattered Clouds
8:52 AM 72.0 °F 39.9 °F 31% 29.99 in 10.0 mi NNE 9.2 mph - N/A   Clear
9:52 AM 75.0 °F 41.0 °F 29% 29.98 in 10.0 mi NNE 9.2 mph - N/A   Clear
10:52 AM 82.0 °F 39.9 °F 22% 29.97 in 10.0 mi East 8.1 mph - N/A   Clear
11:52 AM 84.0 °F 36.0 °F 18% 29.96 in 10.0 mi ESE 8.1 mph - N/A   Clear
12:52 PM 87.1 °F 36.0 °F 16% 29.95 in 10.0 mi Variable 3.5 mph - N/A   Clear
1:52 PM 89.1 °F 37.0 °F 16% 29.93 in 10.0 mi NE 9.2 mph - N/A   Clear
2:52 PM 89.1 °F 36.0 °F 15% 29.91 in 10.0 mi ESE 8.1 mph - N/A   Clear
3:52 PM 89.1 °F 35.1 °F 15% 29.90 in 10.0 mi SSE 9.2 mph - N/A   Clear
4:52 PM 91.0 °F 35.1 °F 14% 29.88 in 10.0 mi NW 3.5 mph - N/A   Clear
5:52 PM 90.0 °F 33.1 °F 13% 29.87 in 10.0 mi East 5.8 mph - N/A   Clear
6:52 PM 88.0 °F 36.0 °F 16% 29.86 in 10.0 mi Calm Calm - N/A   Clear
7:52 PM 84.9 °F 42.1 °F 22% 29.87 in 10.0 mi West 9.2 mph - N/A   Clear
8:52 PM 81.0 °F 44.1 °F 27% 29.87 in 10.0 mi WNW 10.4 mph - N/A   Clear
9:52 PM 75.9 °F 42.1 °F 30% 29.88 in 10.0 mi NW 8.1 mph - N/A   Clear
10:52 PM 73.0 °F 39.0 °F 29% 29.88 in 10.0 mi Variable 5.8 mph - N/A   Partly Cloudy
11:52 PM 71.1 °F 52.0 °F 51% 29.90 in 10.0 mi SW 8.1 mph - N/A   Mostly Cloudy